Flag for Germany Weather past 2 weeks in Radebeul, Saxony, Germany

Now
43 °F

Light rain. Overcast.


Feels Like: 39 °F
Forecast: 40 / 50 °F
Wind: 7 mph from West

Location: Dresden-Klotzsche

Current Time: Mar 27, 2015 at 9:54:52 PM

Latest Report: Mar 27, 2015 at 9:00 PM


Visibility: 16 mi

Pressure: 30.09 "Hg

Humidity: 79%

Dew point: 37 °F

Location of RadebeulLocation

Historic Weather in Radebeul — Graph

°F

Radebeul temperature yesterday

Maximum temperature yesterday: 55 °F (at 12:00 AM)
Minimum temperature yesterday: 43 °F (at 11:00 AM)
Average temperature yesterday: 47 °F

Past Weeks' High & Low Weather Summary

 TemperatureHumidityPressure
High64 °F (Mar 25, 3:00 PM)100% (Mar 13, 7:00 AM)30.46 "Hg (Mar 13, 7:00 AM)
Low26 °F (Mar 23, 3:00 AM)26% (Mar 19, 4:00 PM)29.62 "Hg (Mar 26, 2:00 AM)
Average43 °F72%30.16 "Hg
* Reported Mar 12 8:00 PM — Mar 27 8:00 PM, Radebeul, Weather by CustomWeather, © 2015

Note: Actual official high and low records may vary slightly from our data, if they occured in-between our weather recording intervals... More about our weather records

Advertising

Radebeul weather history for previous 24 hours

 ConditionsComfort  
Time TempWeatherWind HumidityBarometerVisibility
8:00 PM
Fri, Mar 27
44 °FOvercast.7 mph72%30.07 "Hg19 mi
7:00 PM45 °FOvercast.5 mph76%30.05 "Hg19 mi
6:00 PM44 °FOvercast.7 mph77%30.03 "Hg19 mi
5:00 PM46 °FOvercast.8 mph70%30.00 "Hg19 mi
3:00 PM46 °FPartly sunny.6 mph79%29.97 "Hg17 mi
2:00 PM49 °FPartly sunny.6 mph59%29.94 "Hg17 mi
1:00 PM49 °FPartly sunny.7 mph57%29.94 "Hg17 mi
12:00 PM46 °FPartly sunny.7 mph73%29.94 "Hg16 mi
11:00 AM46 °FOvercast.6 mph76%29.94 "Hg14 mi
9:00 AM43 °FOvercast.6 mph86%29.91 "Hg8 mi
8:00 AM42 °FQuite cool.3 mph89%29.90 "HgN/A
7:00 AM41 °FLight rain. Overcast.5 mph89%29.88 "Hg7 mi
6:00 AM42 °FOvercast.3 mph89%29.86 "Hg6 mi
5:00 AM42 °FLight rain. Overcast.5 mph87%29.84 "Hg5 mi
3:00 AM42 °FLight rain. Low clouds.3 mph92%29.82 "Hg4 mi
2:00 AM43 °FLight rain. Low clouds.2 mph92%29.81 "Hg4 mi
1:00 AM44 °FLight rain. Low clouds.5 mph90%29.81 "Hg3 mi
12:00 AM44 °FLight rain. Low clouds.3 mph99%29.80 "Hg2 mi
11:00 PM
Thu, Mar 26
43 °FLight rain. Low clouds.1 mph98%29.80 "Hg2 mi
10:00 PM44 °FLight rain. Overcast.2 mph94%29.80 "Hg3 mi
9:00 PM44 °FLight rain. Overcast.No wind90%29.79 "Hg4 mi
Weather by CustomWeather, © 2015

See weather overviewHow to use our weather pages